CAPE
0 0 0 0 0 0 0 0 0 0 0 0 0 8 0 0 0 0 0 2 0 34 13 9 38 262 211 335 330 292 389 570 446 634 734 971 1186 1090 2164 2423 2232 2790 2679 2623 2843 2972 3047 3276 3327 3288 3182 3151 2916 2774 2893 3033 2993 2881 2647 2835 2630 2726 2558 2413 2949 3108 2940 3429 3250 3290 3014 2948 2158 2951 2401 1673 1993 3222 2272 2802 2675 2758 2968 2692 2404 2158
0 0 0 0 0 0 0 0 0 0 0 0 0 0 2 0 7 0 2 0 0 0 4 78 122 289 368 314 374 285 359 436 408 592 683 778 1015 1123 1536 1384 1021 2039 974 1102 2303 2606 1439 2141 3106 3202 3049 2978 2952 3016 2952 2923 2915 2820 2888 2721 2812 2643 2249 2827 2634 3554 3124 3108 3116 2585 2410 1711 623 806 1042 1160 1170 2350 2064 2257 2654 3083 2687 2587 2356 1883
0 0 0 0 0 0 0 0 0 0 0 0 0 0 4 1 0 10 2 0 0 0 28 18 8 62 232 336 378 326 249 361 560 568 715 920 854 1108 1021 863 1089 923 1265 1318 1004 1915 2345 2274 2839 2941 2856 2775 2912 2944 2962 2820 2975 2840 3018 2945 2890 2702 2427 3172 3566 2984 3456 3774 2882 1831 1674 1388 977 767 802 505 346 480 593 1784 2658 2752 2493 2085 1464 1221
0 0 0 0 0 0 0 0 0 0 0 0 1 0 0 7 0 3 0 0 0 0 0 59 74 57 557 493 505 354 156 254 384 433 630 608 806 853 526 789 1075 918 1137 1120 903 1523 1806 2131 2580 2718 2515 2545 2672 2643 2808 2718 2999 3186 2953 3244 2748 3048 4332 3301 3411 3285 3680 2209 1783 1998 1862 1546 630 424 326 453 135 105 180 197 152 558 873 929 936 790
0 0 0 0 0 0 0 0 0 0 0 0 0 4 0 0 0 0 7 0 0 0 0 37 9 50 279 625 703 366 301 178 206 314 556 574 679 670 636 901 904 865 1043 936 1029 1342 1448 2097 2135 2511 2589 2530 2523 2530 2420 2525 2935 3057 3025 2938 2866 2762 3356 3000 2902 2864 2309 2221 2596 1976 1120 400 341 264 227 314 124 19 20 10 73 242 554 790 928 813
0 0 0 0 0 0 0 0 0 0 0 0 0 0 0 0 0 0 3 0 0 0 0 0 38 78 879 841 986 528 494 308 234 401 607 739 601 618 644 772 785 646 966 784 1188 830 1334 1582 1988 2457 2632 2509 2433 2350 2205 2276 2900 2980 2960 3091 2624 2746 2558 2144 2325 1761 846 830 721 668 378 323 310 253 299 465 189 88 138 0 27 209 317 716 943 829
0 0 0 0 0 0 0 0 0 0 0 0 0 0 0 0 0 2 7 0 0 0 0 0 0 8 689 830 190 58 367 654 772 680 728 1040 995 662 556 648 678 626 416 723 846 1167 1390 1565 2036 2528 2708 2248 2120 2127 2255 2364 2923 2943 3154 2946 2699 2569 2326 2011 1448 798 403 577 503 382 217 277 236 210 430 418 450 447 406 65 132 194 248 552 754 773
0 0 0 0 0 0 0 0 0 0 0 0 3 0 0 0 0 0 8 3 0 0 2 0 0 0 13 48 34 85 182 420 498 427 500 737 1370 1037 756 575 684 753 270 304 883 1273 1342 1488 1842 2166 2392 1944 1836 2050 2502 2886 3280 3056 2952 2782 2317 2014 1879 1394 915 522 345 457 451 509 261 326 286 346 416 271 316 378 422 257 340 363 384 447 719 757
0 0 0 0 0 0 0 0 0 0 0 26 30 0 0 0 0 0 0 0 0 1 2 0 0 0 0 1 26 189 183 66 38 225 203 277 808 1110 1132 946 836 662 766 390 858 1181 1178 1426 1733 1892 2169 1725 1402 2112 2849 2702 3061 3138 2960 2409 2183 1807 1369 998 658 670 702 405 265 256 316 458 587 447 303 141 136 390 512 417 440 522 520 593 590 602
0 0 0 0 0 0 0 0 0 0 0 0 0 0 0 0 0 0 4 0 1 4 1 0 14 20 5 0 0 0 28 210 304 218 254 155 258 510 604 676 920 894 973 760 994 1229 1345 1506 1579 1671 1713 1339 1413 2483 2577 2623 3054 3108 2565 2342 1774 1258 1071 1058 871 984 1024 652 529 574 532 380 236 279 201 117 135 339 478 376 391 563 536 566 582 491
0 0 0 0 0 0 0 0 0 0 0 0 0 0 2 0 5 4 3 5 3 20 0 0 0 0 0 0 3 0 0 5 333 425 146 96 131 240 393 458 656 867 1074 1055 1169 1335 1399 1588 1486 1390 1713 1605 1656 2276 2526 2484 2973 2651 2301 1805 1350 1146 1084 910 1161 1130 811 665 397 346 259 187 138 118 128 206 248 350 389 374 376 353 457 555 536 494
0 0 0 0 0 0 0 0 0 0 0 0 0 0 0 2 14 10 14 16 22 12 0 0 0 5 0 0 4 9 0 0 0 41 156 112 135 250 422 278 342 675 744 834 988 1199 1739 1790 1684 1581 1664 1691 1998 2228 2643 2187 2561 2228 1777 1483 1326 1102 917 1020 986 660 493 322 584 292 214 196 194 85 194 298 218 342 275 296 238 336 287 453 500 616
0 0 0 0 0 0 0 0 0 0 0 0 0 0 10 28 14 0 6 10 0 0 7 0 0 14 2 0 0 0 4 2 0 0 2 148 243 353 530 384 329 416 410 1096 1197 1543 1774 1717 1926 2034 1696 2399 2532 2567 2473 2187 1919 1804 1590 1315 1353 888 1049 1367 751 769 579 493 592 418 160 148 312 223 244 280 212 371 285 287 203 182 177 222 306 401
0 0 0 0 0 0 0 0 0 0 0 0 0 0 8 4 12 2 12 21 20 10 0 3 15 0 0 0 0 2 0 3 6 0 0 106 646 565 518 672 374 396 730 956 1245 1512 2031 2108 2017 2583 1754 2628 2970 2736 2141 2084 1715 1652 1268 1256 1053 1160 1395 878 594 288 166 293 246 339 266 345 385 385 183 365 282 235 231 278 176 129 126 224 248 243
0 0 0 0 0 0 0 0 0 0 0 0 0 0 0 2 13 18 0 8 14 2 30 4 1 24 0 7 0 0 0 0 0 0 0 5 444 1032 1071 784 812 498 754 882 1432 1539 1217 1643 2044 2640 2604 2928 3086 2162 1869 1663 1578 1457 1174 1172 1196 1472 943 628 424 167 90 115 308 386 352 432 534 371 279 334 319 256 226 182 116 127 214 335 309 340
0 0 0 0 0 0 0 0 0 0 0 0 0 0 1 0 4 0 34 13 32 6 21 18 3 21 0 12 10 16 3 6 0 0 0 0 23 431 1232 1300 794 443 687 913 511 512 835 1261 2617 2720 1510 2954 2748 1936 1491 1534 1672 1422 1096 1040 915 1146 591 565 353 282 150 162 308 386 408 344 372 410 371 398 284 274 187 122 218 354 391 400 418 389
0 0 0 0 0 0 0 0 0 0 0 0 0 0 0 0 0 16 11 2 0 0 1 0 2 1 0 0 0 0 0 0 0 0 0 0 4 25 906 1646 1600 917 829 1594 1996 1608 1061 943 2501 1892 1780 1687 1817 1607 1403 1636 1866 1387 1204 905 875 642 716 571 459 466 482 322 348 377 529 384 261 280 400 298 222 17 60 91 271 320 316 332 326 342
0 7 0 0 0 0 0 0 0 0 0 0 0 0 0 0 1 11 18 32 0 1 2 1 25 25 0 20 28 1 0 0 0 0 0 0 41 286 480 1646 2040 1464 1146 1710 1736 944 654 1066 1848 1563 2285 1971 1025 758 1309 1922 1941 1362 1068 934 886 726 838 723 730 579 581 537 568 527 484 445 298 140 138 205 147 79 52 174 225 268 232 233 235 213
0 17 0 0 0 0 0 0 0 0 0 0 0 1 0 6 0 0 0 16 22 4 4 10 0 8 7 47 13 32 4 0 0 0 0 0 44 308 791 777 1185 1448 676 1144 2047 1680 1309 1037 2324 2301 2420 1725 1128 943 764 1821 1842 1149 981 858 850 862 905 878 894 762 588 371 241 349 321 246 248 300 220 160 124 41 28 142 164 181 177 169 175 204
0 6 0 0 0 0 0 0 0 0 0 0 0 0 0 0 6 5 0 0 5 2 2 12 12 7 32 2 48 12 0 1 0 0 0 0 0 119 576 950 1015 1363 1084 952 1513 1881 1609 1522 1876 1950 1338 670 563 306 720 1251 909 688 784 914 851 906 934 919 957 630 450 467 658 440 357 274 260 264 297 230 149 132 84 77 138 157 121 158 135 150
4 0 34 1 0 0 0 0 0 0 0 0 0 0 0 0 1 1 8 0 15 22 8 16 6 2 34 3 6 4 0 0 0 0 0 0 0 0 114 764 1264 1675 2462 1870 1192 1152 2024 1399 1735 1592 1659 1153 308 578 853 858 519 485 674 832 644 869 908 771 853 704 667 426 430 412 284 370 444 432 365 250 206 132 139 108 145 159 178 188 208 158
0 4 0 16 0 0 0 0 0 0 0 0 0 0 0 0 0 0 14 2 6 0 1 2 4 10 50 24 0 0 0 0 0 0 0 0 0 0 6 357 1430 1734 1407 2452 1816 2584 1877 1853 1234 1198 1502 808 573 949 649 685 726 526 736 873 649 528 596 604 850 826 712 514 298 305 446 363 312 370 398 304 203 124 99 20 11 109 218 143 193 180
0 0 0 28 0 1 0 0 0 0 0 4 0 0 0 0 11 16 2 16 3 1 9 17 15 16 2 1 0 0 0 0 0 0 0 0 0 0 16 93 1226 2093 2221 1848 1935 1717 1888 1542 1070 1119 1136 989 1403 1181 854 991 797 720 795 949 766 516 638 558 762 926 964 826 461 441 426 362 320 340 282 214 128 51 6 12 17 8 10 110 79 103
0 0 1 0 44 1 1 0 0 0 0 0 2 0 0 0 2 3 15 28 10 26 4 20 2 8 60 4 13 9 12 0 1 0 1 0 3 68 112 250 1018 2448 2704 2684 1864 1453 1057 1140 1322 1450 973 1303 1769 1770 1516 1150 1044 824 714 770 690 270 417 186 81 302 810 852 624 407 418 523 518 310 202 130 121 58 18 0 7 31 28 18 3 8
0 0 0 10 7 21 2 0 0 0 0 0 0 0 0 4 2 1 1 16 6 0 10 6 9 24 188 234 84 2 4 2 0 0 0 0 0 6 211 713 1564 2718 2797 2742 2176 1772 1610 1399 1801 1700 1599 2020 2086 1818 1895 1367 1105 855 514 425 412 393 286 366 182 123 331 706 707 615 616 614 493 410 376 244 65 19 2 0 3 3 4 15 44 31
0 0 0 0 1 8 34 17 0 0 0 0 0 0 13 0 16 34 38 44 0 6 4 11 5 27 154 119 2 0 2 9 8 2 0 1 12 7 222 1229 2048 3101 3546 2753 2052 1458 1132 1477 1839 2172 1970 2170 1972 2043 2007 1771 1112 872 498 534 470 466 373 559 480 387 404 334 324 446 534 633 516 362 248 176 102 101 82 26 4 18 27 17 14 2
0 0 0 0 0 1 17 35 9 0 0 0 0 0 0 0 0 9 1 38 19 3 0 15 2 0 126 87 3 1 0 0 0 4 1 4 3 4 115 610 1622 3008 3652 3385 2519 2070 2128 2254 1984 1916 2054 1878 2020 2125 1759 1368 1042 843 935 618 559 509 315 379 423 569 478 400 125 212 368 465 436 377 240 137 109 117 54 5 0 1 41 16 14 0
0 0 4 6 0 0 6 14 0 2 1 0 0 0 0 0 5 11 25 21 31 10 6 0 4 0 0 0 0 0 4 7 0 6 3 0 2 1 166 1676 1661 1721 3357 3975 2904 2334 2594 2566 2263 2107 2190 2138 2262 2011 1649 1420 1084 978 806 693 647 456 228 363 584 802 768 536 254 176 170 310 298 272 258 164 129 118 98 70 33 121 205 163 94 16
1 0 1 0 0 0 0 0 4 3 2 0 0 0 0 0 2 9 40 12 59 2 39 288 34 34 7 0 0 0 0 0 0 0 0 0 0 12 198 1104 1218 1086 2392 3833 3670 3102 2994 2747 2624 2662 2851 2985 2610 2128 1936 1895 1509 1192 1141 720 691 388 413 503 822 1039 998 872 601 458 375 384 346 266 194 134 170 185 214 179 190 247 199 116 79 48
0 0 0 0 0 0 0 0 0 0 8 2 0 2 5 2 6 0 8 3 1 62 2 136 345 24 10 16 7 0 0 4 6 3 1 1 0 12 10 246 1677 1369 1760 3231 3846 3554 3454 3352 3425 3748 3614 3356 2416 2167 2267 2046 1562 1209 1118 743 420 531 557 821 1012 1202 1180 752 673 695 650 602 527 494 354 264 210 252 288 236 253 333 274 166 65 63
0 0 0 0 1 2 0 0 0 0 0 0 2 1 0 6 8 5 7 2 0 5 0 0 16 16 27 49 78 33 36 81 37 0 0 0 0 0 0 0 268 1093 1103 1836 3920 3950 3796 3896 4200 4078 3786 2782 2244 2290 2417 1869 1580 1462 891 729 408 648 654 724 1174 1310 1272 1026 772 708 655 538 583 595 576 534 408 372 397 458 663 592 418 252 129 151
0 8 0 0 0 0 0 8 0 0 0 0 0 0 3 7 13 1 2 2 14 55 58 10 50 39 25 19 0 20 114 199 84 40 0 2 1 0 0 3 330 801 1405 2074 2977 3807 4224 4184 4537 4387 3538 2576 2338 2415 2131 1854 1804 968 1008 726 356 532 725 880 981 1156 1302 1193 1101 846 638 474 451 517 538 552 528 490 496 598 590 622 519 316 173 128
76 50 0 2 0 0 0 0 0 0 0 0 0 0 0 0 2 0 10 8 2 0 0 36 38 22 0 0 2 6 15 12 0 0 7 121 253 248 288 634 705 521 779 1667 2563 3700 4115 4322 4510 4401 3634 2718 2575 2263 1938 1539 1302 1165 913 432 515 711 892 1010 859 911 1272 1463 1204 861 556 423 428 362 408 547 575 591 601 640 668 657 562 278 92 38
1 15 0 0 0 0 0 0 0 0 0 0 0 0 25 5 2 6 2 0 0 0 23 16 0 0 1 0 0 0 0 0 4 28 86 138 111 234 470 559 524 368 610 1219 2212 3133 3697 4184 4177 4337 3737 3030 2794 2146 1558 1624 1472 1110 612 387 590 767 828 801 846 988 1263 1429 1115 626 379 342 356 385 367 460 576 654 740 766 796 710 454 160 104 68
3 0 0 0 0 0 1 4 6 0 0 0 0 0 4 0 0 0 0 0 0 0 1 22 4 0 0 0 3 2 0 2 5 34 62 10 248 506 438 369 1027 1294 1310 1880 2495 2914 3556 4092 3973 4068 3748 3206 2462 2260 2105 1758 1554 1006 401 620 723 859 976 678 682 884 991 1070 903 570 433 324 277 398 414 479 688 851 930 998 1188 870 349 94 66 84
34 2 36 0 0 0 5 90 32 32 0 0 63 60 25 0 0 0 0 0 0 0 0 6 18 7 12 0 0 0 1 1 2 6 10 30 181 625 479 419 726 1168 1633 2044 2814 3181 3605 3866 3722 3546 3634 3076 2558 1928 1826 1740 1295 660 775 734 782 960 1045 1029 927 933 968 916 755 448 406 318 319 450 514 636 851 1173 1183 1140 1294 931 366 135 80 133
14 104 12 5 1 2 20 52 128 539 167 300 157 80 0 60 30 0 0 3 0 0 0 2 17 21 22 31 3 0 7 8 0 0 0 0 368 510 420 704 538 1180 1680 2360 2640 3078 3414 3682 3668 3291 3057 2572 1962 1868 1783 1385 761 770 898 806 622 882 912 965 1146 1076 1044 991 888 526 313 264 252 334 465 512 631 743 968 1088 1102 717 308 131 153 248
14 19 160 77 20 1 40 7 47 94 71 127 122 85 2 24 14 18 0 30 0 12 12 12 21 2 0 0 0 0 100 6 0 0 0 38 242 689 579 666 708 1323 1865 2207 2662 2997 3292 3386 3198 3334 3106 2169 1940 1698 1288 788 667 824 875 760 653 683 760 882 856 780 1047 1063 928 644 312 304 331 479 544 552 454 493 721 886 877 499 272 179 137 133
70 38 125 40 74 18 43 16 37 1 6 24 193 56 85 56 5 100 0 75 129 7 0 0 0 3 0 0 11 38 67 6 0 1 28 92 39 134 558 672 685 1360 1968 2282 2470 2890 2964 3475 3392 3380 2872 2042 1662 1196 841 822 790 661 778 755 556 612 720 824 681 618 802 1024 808 622 296 254 313 522 734 549 333 425 580 605 604 517 423 302 190 262
41 42 66 32 112 162 54 116 127 66 22 20 1 0 1 28 60 37 46 64 6 0 0 2 0 0 6 0 0 36 35 12 0 81 19 46 9 88 994 1373 1418 1852 2240 2414 2681 3159 3547 3603 3432 2628 2038 1736 1222 1076 1145 792 672 709 689 654 561 502 530 694 911 812 838 861 829 579 404 308 419 714 680 466 326 367 498 475 594 658 551 467 193 76
4 2 4 45 6 33 34 62 39 96 129 23 17 12 105 70 79 29 18 4 0 10 0 0 0 0 1 12 6 3 53 36 24 8 10 27 107 604 1436 1697 2073 1952 2186 2111 2764 3308 3597 3604 3374 2262 1676 1616 1649 1070 844 594 539 609 973 1224 1411 1211 1052 877 778 969 1034 849 616 456 390 317 742 904 718 436 188 536 542 429 578 733 506 215 202 303
18 0 0 0 0 0 4 16 11 36 255 63 139 55 52 2 38 24 364 130 65 28 51 2 3 24 12 4 2 24 80 44 0 96 78 42 119 1343 1425 1728 1672 1660 1780 2082 3464 3500 3671 3329 3174 2195 1396 1464 1498 1053 675 747 998 1099 1511 1683 1525 1350 1232 1210 664 660 828 952 763 550 479 658 1004 602 286 113 424 508 913 734 510 388 356 265 363 505
152 5 14 8 8 0 0 1 0 0 1152 156 76 2 16 34 1226 509 464 300 34 82 51 87 28 86 60 92 41 38 45 21 10 93 94 60 442 1581 1522 1800 1938 1626 1710 3189 3406 3634 3210 2778 2114 1373 1184 1092 990 809 650 696 1004 1313 1626 1869 1932 2026 1854 1393 947 879 943 1168 987 682 781 1005 870 585 390 288 665 1001 1111 788 436 464 448 548 447 573
205 62 41 72 8 2 1 17 162 499 297 180 28 140 5 27 292 465 250 165 211 211 223 92 58 54 94 180 229 222 260 92 92 177 292 638 738 936 1682 2198 2178 1512 2475 2616 2292 2476 1911 2255 1748 1119 974 636 705 776 714 1062 1378 1317 1702 2119 2369 2434 2346 1788 1229 1198 1144 983 762 1016 1248 624 520 442 504 667 665 687 858 1002 856 796 847 669 881 951
214 126 782 499 261 7 400 452 296 617 181 92 231 154 368 151 192 167 262 178 146 97 58 48 106 99 170 245 314 386 230 92 192 357 538 729 584 1155 2118 2106 1531 1532 1550 689 987 1607 1165 1474 1670 698 755 594 668 1516 2500 2426 2828 2931 3081 3041 2824 2326 2548 2223 1775 1187 953 1427 1682 1375 786 938 816 848 695 806 694 678 685 824 629 485 431 664 787 786
428 530 584 400 316 328 220 330 217 228 264 273 25 124 124 74 129 92 431 452 554 582 473 297 232 251 234 238 311 550 372 226 356 680 468 612 1027 1404 1884 1748 1790 1510 818 850 1208 1579 1265 1220 1283 1019 902 2399 2650 2832 2423 2594 2422 2878 2758 2185 2662 2636 2443 2425 2577 2694 2406 1740 1182 701 670 920 857 703 634 725 584 413 396 407 398 402 203 316 639 698
204 52 49 66 392 7 293 341 217 183 34 103 128 52 24 0 0 118 410 521 536 515 536 802 902 905 812 774 574 666 520 245 338 692 600 974 892 1514 1592 1792 1457 1093 1004 1450 2291 2056 1329 995 1007 1079 1972 2212 2363 2155 1697 1851 2342 2241 2117 2025 2012 2800 2918 2915 2293 1954 1612 1262 868 542 772 893 414 304 398 245 436 404 500 456 332 266 531 501 598 431
34 58 46 98 144 176 295 161 349 68 232 201 119 48 0 0 41 177 256 420 431 453 444 545 764 716 724 503 566 674 685 439 379 867 1027 1302 1558 1940 2300 2530 2343 2322 2542 2554 2228 1968 1805 1563 1129 1120 1162 1263 1644 2025 1724 949 1177 1391 1778 1268 1200 1740 2124 2430 1910 1398 1110 815 626 964 959 630 206 100 83 73 284 440 412 410 200 61 120 399 720 860
59 9 264 54 45 28 162 289 210 199 168 167 76 1 0 0 49 133 133 204 249 294 439 462 340 557 642 495 479 794 644 590 944 1324 847 1486 1680 1892 1791 2550 2868 2339 1755 1682 1834 2056 2026 1672 1695 2029 2039 2422 2126 1859 1787 1604 970 530 1021 1238 1011 1158 1594 1596 1345 1093 1064 924 865 1012 577 220 202 662 555 784 727 469 1245 1188 281 458 382 289 5 18
118 220 195 36 43 240 582 437 130 190 121 147 32 0 0 20 95 110 47 61 148 289 469 399 398 561 594 547 905 910 1011 1009 1031 787 598 1132 1080 1258 1584 2058 1593 1205 1174 1888 2184 2233 2282 2057 1640 1860 2228 1823 1748 1685 1601 1579 1381 682 83 202 1135 1278 1448 1278 975 681 648 414 436 583 543 563 352 384 469 487 378 130 322 0 0 0 102 14 0 0
88 189 176 316 319 9 116 11 0 70 206 189 18 0 1 66 172 65 0 0 0 21 120 420 530 828 1011 1104 922 1121 1194 1086 1076 713 826 1286 1218 1244 1936 1399 1327 1515 1576 1701 1553 1785 1951 1806 1897 2025 1966 1920 1557 1556 1308 1284 992 988 293 1091 998 1155 1495 1420 1094 496 316 340 302 440 396 444 488 369 270 148 290 388 272 337 0 0 0 0 0 0
Wind_Speed
nan nan nan nan nan nan nan nan nan nan nan nan nan nan nan nan nan nan nan nan nan nan nan nan nan 14 14 12 13 11 11 8 9 10 10 11 12 12 11 14 13 14 13 12 13 14 14 13 13 13 14 15 16 16 17 17 17 17 17 17 17 17 16 15 15 17 18 18 19 19 20 21 25 25 25 22 21 22 22 22 22 22 24 23 23 23
nan nan nan nan nan nan nan nan nan nan nan nan nan nan nan nan nan nan nan nan nan nan nan nan 15 13 15 14 15 13 11 10 9 10 10 13 13 13 14 14 13 12 15 17 14 16 16 15 14 14 14 17 18 17 18 18 19 18 17 17 17 16 15 15 14 14 15 16 17 19 20 21 23 28 29 27 25 30 25 24 25 26 24 24 24 24
nan nan nan nan nan nan nan nan nan nan nan nan nan nan nan nan nan nan nan nan nan nan nan nan nan nan 18 14 16 16 13 8 9 9 9 11 13 13 13 15 17 18 18 20 19 17 17 18 18 15 15 17 18 18 18 18 18 18 17 17 17 16 16 15 15 15 16 18 18 17 19 21 22 25 27 28 27 25 29 29 30 29 27 25 24 23
nan nan nan nan nan nan nan nan nan nan nan nan nan nan nan nan nan nan nan nan nan nan nan nan nan nan 19 14 15 16 14 13 11 12 10 10 11 13 14 14 16 18 20 20 19 20 18 18 17 16 15 16 16 16 16 17 17 16 17 18 18 18 17 16 16 16 17 17 18 20 19 19 22 22 23 28 26 26 27 24 25 27 25 24 25 26
nan nan nan nan nan nan nan nan nan nan nan nan nan nan nan nan nan nan nan nan nan nan nan nan nan nan 19 15 13 13 12 15 14 14 12 12 11 11 12 15 14 16 17 19 19 18 18 17 17 16 15 15 15 15 16 16 17 16 18 20 20 20 20 19 19 19 19 20 21 20 20 19 21 22 22 23 22 nan nan nan nan 25 26 26 26 27
nan nan nan nan nan nan nan nan nan nan nan nan nan nan nan nan nan nan nan nan nan nan nan nan nan nan 21 10 13 12 10 13 13 12 12 12 13 12 13 15 15 15 16 17 16 18 18 17 16 16 16 15 15 15 16 16 18 19 20 21 20 20 20 21 21 19 18 19 18 18 18 19 21 21 22 22 21 nan 21 nan nan 23 24 26 26 28
nan nan nan nan nan nan nan nan nan nan nan nan nan nan nan nan nan nan nan nan nan nan nan nan nan nan 17 17 11 nan 9 11 13 11 12 12 11 14 13 15 16 16 18 16 15 15 18 17 17 17 15 16 17 16 17 17 19 20 22 22 21 21 20 20 21 20 19 19 19 18 18 19 20 21 22 22 22 21 21 nan 21 23 24 26 26 26
nan nan nan nan nan nan nan nan nan nan nan nan nan nan nan nan nan nan nan nan nan nan nan nan nan nan nan nan nan nan 11 10 10 14 15 15 13 15 14 16 18 17 18 16 16 14 16 17 17 17 17 16 18 18 18 19 20 21 22 23 22 22 22 22 22 22 21 20 19 19 17 19 19 20 20 19 21 22 22 21 22 23 24 25 26 27
nan nan nan nan nan nan nan nan nan nan nan nan nan nan nan nan nan nan nan nan nan nan nan nan nan nan nan nan nan 12 13 nan nan 15 18 15 15 16 16 15 18 18 17 16 14 15 16 18 18 18 18 17 19 19 19 19 20 21 22 23 23 23 23 24 24 23 23 21 21 19 18 18 19 20 19 18 19 20 22 21 23 24 25 25 25 27
nan nan nan nan nan nan nan nan nan nan nan nan nan nan nan nan nan nan nan nan nan nan nan nan nan nan nan nan nan nan nan 14 18 19 18 15 17 17 18 17 18 18 17 16 14 14 16 19 18 19 19 19 19 20 19 21 22 22 23 24 24 24 23 24 25 24 25 25 23 22 21 20 20 21 21 20 20 21 22 22 24 25 26 26 26 26
nan nan nan nan nan nan nan nan nan nan nan nan nan nan nan nan nan nan nan nan nan nan nan nan nan nan nan nan nan nan nan nan 18 21 16 nan 18 21 21 21 20 19 19 18 17 14 17 20 19 21 19 20 21 21 22 22 23 24 25 26 26 25 24 25 26 26 26 25 24 23 22 21 20 21 21 22 23 24 24 25 26 26 27 28 28 28
nan nan nan nan nan nan nan nan nan nan nan nan nan nan nan nan nan nan nan nan nan nan nan nan nan nan nan nan nan nan nan nan nan nan 19 18 19 21 23 22 23 24 20 20 20 17 20 21 21 22 20 20 22 23 24 25 25 26 26 27 28 27 26 26 26 26 25 24 26 23 24 22 23 nan 24 24 24 26 26 27 27 28 28 29 29 29
nan nan nan nan nan nan nan nan nan nan nan nan nan nan nan nan nan nan nan nan nan nan nan nan nan nan nan nan nan nan nan nan nan nan nan 19 22 23 24 24 24 27 26 23 20 20 21 23 23 22 21 23 24 25 26 28 28 28 28 29 30 29 29 28 28 26 25 26 25 25 24 24 26 24 26 26 26 28 28 28 29 29 29 30 30 30
nan nan nan nan nan nan nan nan nan nan nan nan nan nan nan nan nan nan nan nan nan nan nan nan nan nan nan nan nan nan nan nan nan nan nan 15 21 24 26 24 24 27 29 27 26 23 24 26 25 21 25 26 27 28 28 29 29 29 29 30 31 32 31 30 29 27 26 27 25 26 25 26 26 27 27 28 28 29 29 30 29 29 29 29 29 30
nan nan nan nan nan nan nan nan nan nan nan nan nan nan nan nan nan nan nan nan nan nan nan nan nan nan nan nan nan nan nan nan nan nan nan nan 18 22 25 24 23 26 30 31 30 27 27 32 30 26 28 28 27 29 30 30 31 30 31 31 32 33 32 32 30 29 nan 27 28 27 27 27 29 29 29 30 31 30 30 30 30 30 30 30 30 30
nan nan nan nan nan nan nan nan nan nan nan nan nan nan nan nan nan nan nan nan nan nan nan nan nan nan nan nan nan nan nan nan nan nan nan nan nan 15 21 25 23 24 29 32 32 30 29 33 34 32 32 31 27 29 31 32 32 31 32 33 33 33 33 32 31 31 29 29 29 29 27 28 30 31 31 32 32 32 32 31 31 31 30 30 31 31
nan nan nan nan nan nan nan nan nan nan nan nan nan nan nan nan nan nan nan nan nan nan nan nan nan nan nan nan nan nan nan nan nan nan nan nan nan nan 14 23 25 23 26 30 33 33 32 34 40 35 34 33 28 31 32 33 32 33 35 34 35 34 33 33 33 31 32 30 30 30 30 31 31 33 34 32 34 nan nan nan 32 32 31 31 32 33
nan nan nan nan nan nan nan nan nan nan nan nan nan nan nan nan nan nan nan nan nan nan nan nan nan nan nan nan nan nan nan nan nan nan nan nan nan 13 13 19 24 21 23 26 30 34 33 35 42 36 32 32 31 33 31 35 33 34 35 36 36 35 34 34 34 33 33 32 32 31 32 32 32 32 34 34 35 nan nan 35 35 34 34 33 33 34
nan nan nan nan nan nan nan nan nan nan nan nan nan nan nan nan nan nan nan nan nan nan nan nan nan nan nan nan nan nan nan nan nan nan nan nan nan 12 10 13 23 25 24 24 27 32 34 31 38 38 38 31 31 34 33 35 34 35 36 37 37 36 36 36 34 34 34 33 32 34 33 33 34 35 35 36 36 nan nan 35 35 35 35 34 34 35
nan nan nan nan nan nan nan nan nan nan nan nan nan nan nan nan nan nan nan nan nan nan nan nan nan nan nan nan nan nan nan nan nan nan nan nan nan 15 10 11 15 23 24 27 25 27 31 35 35 36 37 32 30 33 34 36 31 36 38 38 37 37 37 37 36 35 35 35 36 36 35 35 36 36 37 37 37 36 nan nan 35 35 34 34 35 35
nan nan nan nan nan nan nan nan nan nan nan nan nan nan nan nan nan nan nan nan nan nan nan nan nan nan nan nan nan nan nan nan nan nan nan nan nan nan 13 12 15 21 26 30 24 26 31 34 34 33 34 29 31 35 35 33 32 36 38 39 39 39 39 38 37 37 37 37 38 36 35 36 37 38 38 38 38 37 37 36 36 35 36 36 35 35
nan nan nan nan nan nan nan nan nan nan nan nan nan nan nan nan nan nan nan nan nan nan nan nan nan nan nan nan nan nan nan nan nan nan nan nan nan nan nan 14 17 19 25 32 28 31 32 31 35 32 27 26 30 37 41 38 36 37 39 39 39 40 39 39 39 39 40 39 38 37 37 36 37 38 39 39 38 38 nan nan nan 36 37 37 37 36
nan nan nan nan nan nan nan nan nan nan nan nan nan nan nan nan nan nan nan nan nan nan nan nan nan nan nan nan nan nan nan nan nan nan nan nan nan nan nan nan 20 19 21 29 34 34 33 33 34 31 27 27 35 36 39 39 38 38 39 40 40 39 41 41 42 42 42 41 40 38 37 37 38 38 38 38 38 nan nan nan nan nan nan 37 nan 38
nan nan nan nan nan nan nan nan nan nan nan nan nan nan nan nan nan nan nan nan nan nan nan nan nan nan nan nan nan nan nan nan nan nan nan nan nan nan 18 16 21 25 24 28 31 31 32 33 31 30 33 35 36 37 39 39 38 38 38 40 41 41 42 41 nan 44 44 43 41 39 38 39 38 37 36 38 40 nan nan nan nan nan nan nan nan nan
nan nan nan nan nan nan nan nan nan nan nan nan nan nan nan nan nan nan nan nan nan nan nan nan nan nan 30 32 nan nan nan nan nan nan nan nan nan nan 19 18 19 25 27 30 32 32 34 35 37 36 37 36 37 38 38 39 39 40 40 40 40 42 45 44 43 43 45 45 43 42 41 39 37 38 38 38 nan nan nan nan nan nan nan nan nan nan
nan nan nan nan nan nan nan nan nan nan nan nan nan nan nan nan nan nan nan nan nan nan nan nan nan nan 32 30 nan nan nan nan nan nan nan nan nan nan 19 22 21 23 26 31 34 35 36 35 36 39 39 37 38 39 39 40 42 42 42 41 40 43 46 46 45 46 46 45 44 43 42 40 37 36 37 38 38 39 nan nan nan nan nan nan nan nan
nan nan nan nan nan nan nan nan nan nan nan nan nan nan nan nan nan nan nan nan nan nan nan nan nan nan 22 nan nan nan nan nan nan nan nan nan nan nan 24 21 22 23 23 25 33 37 37 39 40 40 40 39 40 40 40 42 43 43 43 42 41 43 44 45 46 47 46 46 44 44 42 39 38 38 39 40 41 42 nan nan nan nan nan nan nan nan
nan nan nan nan nan nan nan nan nan nan nan nan nan nan nan nan nan nan nan nan nan nan nan nan nan nan nan nan nan nan nan nan nan nan nan nan nan nan 26 29 25 21 23 25 30 33 37 39 40 40 41 41 41 41 41 41 42 42 44 43 42 41 40 45 47 48 47 46 46 43 40 39 39 40 41 42 43 43 nan nan nan 42 41 39 nan nan
nan nan nan nan nan nan nan nan nan nan nan nan nan nan nan nan nan nan nan nan nan nan nan 29 nan nan nan nan nan nan nan nan nan nan nan nan nan nan 29 33 32 29 24 27 30 34 38 40 40 41 43 43 45 45 44 42 42 43 44 43 40 38 43 46 49 49 48 47 46 43 40 41 41 42 44 45 45 45 43 43 43 42 40 40 nan nan
nan nan nan nan nan nan nan nan nan nan nan nan nan nan nan nan nan nan nan nan nan nan nan 24 24 nan nan nan nan nan nan nan nan nan nan nan nan nan nan 30 36 33 28 29 31 34 38 41 43 43 44 46 48 47 45 44 43 44 46 41 38 42 44 48 49 49 48 46 45 43 43 45 44 44 46 47 47 45 44 44 43 42 41 40 nan nan
nan nan nan nan nan nan nan nan nan nan nan nan nan nan nan nan nan nan nan nan nan nan nan nan nan nan nan nan nan nan nan nan nan nan nan nan nan nan nan nan 28 33 32 31 34 36 38 42 44 46 46 47 49 48 46 46 45 47 47 40 43 46 46 48 49 49 48 46 43 43 45 47 46 47 48 49 47 46 45 44 44 43 42 41 40 40
nan nan nan nan nan nan nan nan nan nan nan nan nan nan nan nan nan nan nan nan nan nan nan nan nan nan nan nan nan nan 33 23 nan nan nan nan nan nan nan nan 25 27 28 32 34 36 40 42 44 46 47 48 49 48 47 48 48 49 43 41 45 47 48 48 49 49 48 45 43 44 46 46 47 48 49 49 48 46 45 45 45 44 43 42 41 41
nan nan nan nan nan nan nan nan nan nan nan nan nan nan nan nan nan nan nan nan nan nan nan nan nan nan nan nan nan nan nan nan nan nan nan 25 24 22 23 24 24 24 25 28 32 34 36 41 44 45 47 48 48 47 48 49 51 48 43 44 46 46 48 50 49 49 47 45 45 46 46 47 47 48 49 49 48 47 46 45 45 45 44 43 nan nan
nan nan nan nan nan nan nan nan nan nan nan nan nan nan nan nan nan nan nan nan nan nan nan nan nan nan nan nan nan nan nan nan nan nan nan 25 22 20 20 20 21 22 24 27 30 33 33 35 38 43 46 47 47 47 48 49 48 44 45 45 46 47 47 48 48 48 47 46 46 46 46 48 49 49 49 49 48 47 46 45 44 44 44 44 45 nan
nan nan nan nan nan nan nan nan nan nan nan nan nan nan nan nan nan nan nan nan nan nan nan nan nan nan nan nan nan nan nan nan nan nan nan nan 25 22 21 21 23 24 25 27 30 33 34 35 37 40 41 43 45 46 47 45 44 46 44 45 46 48 48 47 46 47 46 46 47 48 48 48 50 49 48 48 48 48 46 44 44 44 44 nan nan nan
nan nan nan nan nan nan nan nan nan nan nan nan nan nan nan nan nan nan nan nan nan nan nan nan nan nan nan nan nan nan nan nan nan nan nan nan 26 26 25 23 24 24 25 27 30 32 34 34 36 38 37 40 43 45 44 43 43 44 45 45 46 48 47 47 46 45 45 45 46 48 49 50 51 50 48 47 46 46 45 43 44 44 45 44 nan 44
nan 33 nan nan nan nan nan nan 26 38 33 32 32 nan nan nan nan nan nan nan nan nan nan nan nan nan nan nan nan nan nan nan nan nan nan nan 30 27 25 23 22 25 25 27 28 30 31 32 33 39 39 39 42 43 42 42 43 43 44 45 46 47 47 47 47 45 44 44 46 48 50 50 50 50 48 46 44 43 43 42 43 43 44 43 44 44
nan nan 38 nan nan nan nan nan nan nan nan 31 32 nan nan nan nan nan nan nan nan nan nan nan nan nan nan nan nan nan nan nan nan nan nan nan 34 28 27 26 26 27 27 28 29 31 32 31 36 39 40 42 42 42 42 42 42 43 42 43 45 46 46 46 44 44 44 44 45 46 47 49 48 48 47 46 43 43 42 40 41 41 44 43 42 41
nan nan 35 nan nan nan nan nan nan nan nan nan 29 nan nan nan nan 42 nan nan 37 nan nan nan nan nan nan nan nan nan nan nan nan nan nan nan nan 34 33 30 31 33 32 33 33 35 36 37 39 41 41 42 43 42 42 41 43 42 42 42 42 44 45 44 43 43 45 45 44 44 46 46 46 46 48 47 43 42 42 39 37 39 42 43 42 41
nan nan nan nan 28 31 nan 34 30 nan nan nan nan nan nan nan nan nan nan nan nan nan nan nan nan nan nan nan nan nan nan nan nan nan nan nan nan nan 35 34 35 38 37 39 38 40 40 41 40 43 44 45 44 43 43 42 40 40 41 42 40 40 40 42 43 44 43 43 45 45 46 46 46 48 47 44 41 42 43 41 38 38 41 43 41 nan
nan nan nan nan nan nan nan nan nan nan 40 nan nan nan 37 nan nan nan nan nan nan nan nan nan nan nan nan nan nan nan nan nan nan nan nan nan 37 39 38 37 38 38 40 40 42 44 42 43 43 45 47 44 45 44 43 41 39 38 40 40 39 37 38 41 44 43 43 44 44 44 44 45 47 49 47 44 40 43 43 41 39 39 41 40 38 35
nan nan nan nan nan nan nan nan nan nan 43 nan 44 nan nan nan nan nan 44 39 nan nan nan nan nan nan nan nan nan nan nan nan nan nan nan nan 36 41 38 39 39 39 39 42 47 45 44 44 44 46 48 46 45 44 41 40 39 38 38 40 38 38 39 40 42 43 44 45 44 44 44 46 48 49 46 39 41 45 44 41 40 40 41 40 39 39
32 nan nan nan nan nan nan nan nan nan 45 33 nan nan nan nan 47 48 44 42 nan nan nan nan nan nan nan nan nan nan nan nan nan nan nan nan 39 39 37 39 40 41 44 47 46 44 45 44 45 47 47 45 43 40 40 40 39 37 35 34 37 39 39 41 42 42 46 47 44 43 44 49 49 49 46 41 44 44 42 41 39 37 38 37 36 39
40 nan nan nan nan nan nan nan 38 47 50 47 nan 38 nan nan 47 45 44 39 41 38 35 nan nan nan nan 28 26 26 25 nan nan 30 31 41 40 32 36 39 40 42 46 45 45 44 44 45 44 44 43 42 41 40 40 40 41 40 36 34 36 38 39 39 44 45 45 45 44 45 49 50 47 43 40 43 43 42 41 42 40 39 39 38 39 41
45 38 42 40 42 nan 37 43 40 43 47 nan 47 44 44 47 43 43 39 40 39 nan nan nan 33 nan 30 28 28 28 27 nan 26 33 34 37 38 37 39 41 41 42 42 43 43 42 43 45 44 42 42 40 38 39 41 41 39 38 36 36 37 38 39 44 45 43 46 49 52 53 53 52 49 44 41 44 45 43 41 39 38 37 38 38 39 40
44 38 40 34 32 46 42 45 43 40 39 42 nan 43 44 nan 50 nan 44 40 43 39 37 33 32 31 30 29 29 31 29 28 28 34 33 36 38 41 42 43 43 41 40 41 42 44 41 46 39 41 40 46 44 40 40 40 36 33 33 36 40 44 46 47 45 49 53 54 54 52 52 52 50 46 43 44 44 42 39 37 35 36 37 35 36 38
41 nan nan nan 39 nan 38 41 33 41 nan 37 47 nan nan nan nan 46 43 41 40 38 35 36 34 33 32 31 29 30 30 29 30 36 33 37 40 46 45 46 44 42 42 44 44 43 39 39 40 39 45 43 40 37 40 37 36 34 39 43 44 48 48 53 53 54 55 53 50 49 49 49 46 44 46 44 42 38 38 37 36 36 37 36 34 33
nan nan nan nan 31 33 34 36 41 nan 44 42 44 nan nan nan nan 48 46 43 40 38 36 36 37 32 31 29 30 30 30 29 32 36 39 42 45 48 45 44 46 46 47 45 44 44 43 39 35 37 42 42 42 39 44 40 41 44 46 44 46 49 53 54 55 55 54 51 50 51 49 46 47 44 nan nan 37 35 35 36 35 nan 35 34 34 34
nan nan 32 nan nan nan 44 41 42 37 38 48 nan nan nan nan nan 47 47 45 43 41 40 37 34 33 32 30 32 33 30 37 38 47 43 45 43 41 41 41 46 47 46 44 43 43 43 44 45 46 45 45 44 45 46 47 45 45 49 48 47 51 55 54 53 51 51 51 50 51 49 44 42 42 40 36 38 38 42 38 34 36 36 44 nan nan
33 31 36 nan nan 35 44 48 46 36 37 44 nan nan nan nan nan 45 nan nan 46 44 41 37 36 36 36 33 35 41 43 40 40 47 37 43 42 38 39 45 46 46 46 45 42 44 46 47 47 47 48 47 47 49 50 50 48 47 nan 48 57 55 54 53 53 51 49 47 46 47 47 45 40 39 39 36 35 38 47 nan nan nan 36 nan nan nan
nan 41 39 35 36 nan 49 nan nan nan 41 46 nan nan nan nan 45 nan nan nan nan nan 42 40 37 40 40 38 41 44 38 43 39 36 41 44 43 42 38 44 47 45 47 46 44 45 49 50 51 50 49 49 51 52 52 51 50 48 50 57 55 54 52 53 50 47 44 43 41 44 41 41 39 40 37 36 35 34 38 44 nan nan nan nan nan nan
Wind_Direction
nan nan nan nan nan nan nan nan nan nan nan nan nan nan nan nan nan nan nan nan nan nan nan nan nan 299 306 319 321 321 321 331 342 334 343 337 337 342 342 334 340 345 343 356 349 351 348 346 344 342 340 341 339 340 340 343 341 342 343 340 339 340 336 334 330 328 333 331 335 334 335 335 325 322 326 333 337 317 322 328 336 342 340 340 341 339
nan nan nan nan nan nan nan nan nan nan nan nan nan nan nan nan nan nan nan nan nan nan nan nan 298 314 311 318 321 315 322 335 340 334 341 331 329 335 339 328 330 339 344 345 344 353 349 344 344 339 342 342 340 342 343 343 344 343 341 342 338 334 336 328 327 320 323 328 330 333 331 332 333 332 333 330 332 330 334 340 341 340 340 338 339 340
nan nan nan nan nan nan nan nan nan nan nan nan nan nan nan nan nan nan nan nan nan nan nan nan nan nan 306 318 314 317 317 318 317 331 334 327 324 320 325 328 331 342 341 334 344 351 346 340 338 339 346 344 344 341 341 338 337 338 338 340 338 332 326 322 315 317 315 316 325 330 327 331 328 330 329 329 328 333 335 340 338 336 339 342 339 337
nan nan nan nan nan nan nan nan nan nan nan nan nan nan nan nan nan nan nan nan nan nan nan nan nan nan 295 303 309 309 316 307 316 322 332 325 320 315 326 326 326 329 328 333 342 343 341 336 333 340 344 343 343 336 336 333 334 331 331 330 328 323 321 316 314 311 312 318 323 328 331 338 326 322 324 325 331 329 334 332 337 332 329 333 335 335
nan nan nan nan nan nan nan nan nan nan nan nan nan nan nan nan nan nan nan nan nan nan nan nan nan nan 276 292 294 295 313 308 316 318 325 324 321 318 314 313 319 317 323 329 338 333 334 333 330 333 338 336 340 342 336 340 332 327 330 327 330 324 323 321 319 322 322 323 328 328 330 329 324 328 325 325 326 nan nan nan nan 325 329 329 327 328
nan nan nan nan nan nan nan nan nan nan nan nan nan nan nan nan nan nan nan nan nan nan nan nan nan nan 268 291 270 279 294 299 298 307 313 318 326 328 319 311 314 312 316 320 333 336 334 330 323 326 332 334 334 340 334 337 330 334 331 332 332 327 330 325 319 312 309 308 309 313 321 324 323 324 323 320 322 nan 321 nan nan 323 325 321 324 326
nan nan nan nan nan nan nan nan nan nan nan nan nan nan nan nan nan nan nan nan nan nan nan nan nan nan 277 283 297 nan 291 293 297 310 311 316 321 328 322 314 313 317 314 320 330 335 328 324 321 322 327 330 329 332 325 327 327 330 329 331 330 327 325 322 320 317 313 309 309 309 313 316 319 321 318 318 320 317 318 nan 321 322 323 320 323 322
nan nan nan nan nan nan nan nan nan nan nan nan nan nan nan nan nan nan nan nan nan nan nan nan nan nan nan nan nan nan 310 305 316 317 314 315 327 330 327 319 315 318 316 321 328 331 321 321 320 320 321 324 322 323 319 324 325 327 326 326 326 328 327 326 325 322 317 313 309 307 306 311 316 314 315 319 320 319 317 317 318 318 322 322 323 322
nan nan nan nan nan nan nan nan nan nan nan nan nan nan nan nan nan nan nan nan nan nan nan nan nan nan nan nan nan 313 322 nan nan 322 317 319 325 330 332 321 318 320 316 319 320 324 318 315 317 315 315 320 316 318 319 322 322 323 324 323 324 325 327 327 327 325 321 317 312 306 304 308 312 311 313 314 311 310 313 317 316 318 320 323 324 322
nan nan nan nan nan nan nan nan nan nan nan nan nan nan nan nan nan nan nan nan nan nan nan nan nan nan nan nan nan nan nan 309 309 310 313 320 323 328 328 325 320 316 309 310 311 314 313 309 312 313 315 317 316 312 318 318 320 321 321 322 324 324 326 327 327 327 324 321 318 313 310 308 310 313 314 313 312 313 311 316 315 317 321 323 323 324
nan nan nan nan nan nan nan nan nan nan nan nan nan nan nan nan nan nan nan nan nan nan nan nan nan nan nan nan nan nan nan nan 292 301 312 nan 330 328 328 326 317 313 312 305 306 310 310 307 310 308 314 315 310 314 318 319 319 318 319 321 322 321 322 324 326 329 327 325 322 317 314 309 309 312 315 313 313 312 312 314 316 318 318 324 324 324
nan nan nan nan nan nan nan nan nan nan nan nan nan nan nan nan nan nan nan nan nan nan nan nan nan nan nan nan nan nan nan nan nan nan 313 325 328 325 323 323 320 314 307 306 307 315 309 305 305 302 310 314 311 313 316 317 317 316 317 320 318 318 319 322 323 328 328 327 324 322 316 312 308 nan 312 312 311 311 312 312 315 316 320 321 322 324
nan nan nan nan nan nan nan nan nan nan nan nan nan nan nan nan nan nan nan nan nan nan nan nan nan nan nan nan nan nan nan nan nan nan nan 316 325 328 327 326 317 311 311 306 304 305 303 299 299 306 313 307 309 310 315 313 314 314 316 318 318 318 319 321 320 323 324 326 324 321 319 316 311 310 311 312 312 312 311 310 314 317 318 320 321 322
nan nan nan nan nan nan nan nan nan nan nan nan nan nan nan nan nan nan nan nan nan nan nan nan nan nan nan nan nan nan nan nan nan nan nan 286 309 319 323 321 319 314 310 308 308 306 299 297 297 307 307 308 305 310 311 310 309 311 314 315 317 318 319 319 319 317 320 322 321 319 321 318 314 312 309 310 312 309 310 310 312 313 316 318 321 318
nan nan nan nan nan nan nan nan nan nan nan nan nan nan nan nan nan nan nan nan nan nan nan nan nan nan nan nan nan nan nan nan nan nan nan nan 279 307 313 316 324 319 311 308 307 309 306 302 304 310 304 304 307 312 310 306 304 309 313 314 317 317 318 319 318 315 nan 316 317 318 319 318 317 314 312 309 310 311 311 310 309 311 314 316 315 316
nan nan nan nan nan nan nan nan nan nan nan nan nan nan nan nan nan nan nan nan nan nan nan nan nan nan nan nan nan nan nan nan nan nan nan nan nan 278 305 317 322 317 314 312 310 311 311 302 302 300 303 302 309 315 310 306 304 310 312 314 315 316 317 318 317 317 316 314 313 314 315 317 317 317 315 313 313 313 312 310 309 309 312 314 313 314
nan nan nan nan nan nan nan nan nan nan nan nan nan nan nan nan nan nan nan nan nan nan nan nan nan nan nan nan nan nan nan nan nan nan nan nan nan nan 302 315 320 315 311 308 309 312 312 305 299 303 304 307 316 316 312 306 308 312 312 313 314 314 315 316 315 316 315 313 311 311 312 314 316 318 318 315 310 nan nan nan 309 309 308 308 313 316
nan nan nan nan nan nan nan nan nan nan nan nan nan nan nan nan nan nan nan nan nan nan nan nan nan nan nan nan nan nan nan nan nan nan nan nan nan 301 312 310 313 315 308 307 310 313 313 303 298 298 301 307 318 315 311 309 312 313 311 312 312 313 315 314 314 315 314 314 313 311 311 312 314 314 314 314 313 nan nan 312 310 309 309 309 311 313
nan nan nan nan nan nan nan nan nan nan nan nan nan nan nan nan nan nan nan nan nan nan nan nan nan nan nan nan nan nan nan nan nan nan nan nan nan 300 318 323 319 321 318 319 318 312 313 307 302 311 310 313 315 315 315 311 315 313 310 310 311 312 312 312 312 313 312 312 311 310 309 310 311 312 312 311 311 nan nan 313 310 308 306 308 312 315
nan nan nan nan nan nan nan nan nan nan nan nan nan nan nan nan nan nan nan nan nan nan nan nan nan nan nan nan nan nan nan nan nan nan nan nan nan 291 297 309 316 317 318 320 322 316 313 310 312 311 308 314 323 325 317 316 321 317 311 310 310 310 310 310 311 311 312 313 313 312 310 309 309 309 310 311 313 313 nan nan 311 309 308 307 308 310
nan nan nan nan nan nan nan nan nan nan nan nan nan nan nan nan nan nan nan nan nan nan nan nan nan nan nan nan nan nan nan nan nan nan nan nan nan nan 291 299 313 322 309 307 322 316 309 314 317 316 310 313 326 324 318 319 328 316 311 311 311 310 310 311 311 312 312 312 313 313 311 309 309 310 310 312 313 315 313 312 312 312 309 307 310 310
nan nan nan nan nan nan nan nan nan nan nan nan nan nan nan nan nan nan nan nan nan nan nan nan nan nan nan nan nan nan nan nan nan nan nan nan nan nan nan 300 313 320 322 316 323 311 318 322 320 315 307 317 326 329 326 325 320 315 312 310 309 310 310 311 311 312 312 312 312 312 311 309 308 308 310 312 313 313 nan nan nan 315 313 312 310 310
nan nan nan nan nan nan nan nan nan nan nan nan nan nan nan nan nan nan nan nan nan nan nan nan nan nan nan nan nan nan nan nan nan nan nan nan nan nan nan nan 306 315 319 318 319 322 323 322 319 316 316 323 327 326 322 317 316 313 312 309 308 308 309 310 311 312 312 313 313 314 312 309 308 309 310 312 312 nan nan nan nan nan nan 313 nan 312
nan nan nan nan nan nan nan nan nan nan nan nan nan nan nan nan nan nan nan nan nan nan nan nan nan nan nan nan nan nan nan nan nan nan nan nan nan nan 283 283 297 308 314 315 319 322 322 317 317 320 328 327 323 322 318 313 312 310 310 309 308 309 307 306 nan 310 313 313 314 314 313 311 310 309 309 313 315 nan nan nan nan nan nan nan nan nan
nan nan nan nan nan nan nan nan nan nan nan nan nan nan nan nan nan nan nan nan nan nan nan nan nan nan 261 259 nan nan nan nan nan nan nan nan nan nan 275 278 286 304 311 317 320 319 317 322 324 327 322 320 319 318 313 312 311 310 310 310 310 308 307 306 308 311 312 314 316 317 315 313 311 311 313 315 nan nan nan nan nan nan nan nan nan nan
nan nan nan nan nan nan nan nan nan nan nan nan nan nan nan nan nan nan nan nan nan nan nan nan nan nan 264 267 nan nan nan nan nan nan nan nan nan nan 269 283 282 291 302 313 314 315 324 324 319 316 318 318 318 316 313 310 311 310 309 309 308 305 303 307 311 313 314 315 316 316 316 314 312 312 314 316 318 321 nan nan nan nan nan nan nan nan
nan nan nan nan nan nan nan nan nan nan nan nan nan nan nan nan nan nan nan nan nan nan nan nan nan nan 260 nan nan nan nan nan nan nan nan nan nan nan 285 282 287 292 299 310 314 317 318 316 320 319 318 318 317 314 312 311 310 309 307 308 307 302 303 307 312 312 313 315 315 316 316 314 314 315 317 319 321 322 nan nan nan nan nan nan nan nan
nan nan nan nan nan nan nan nan nan nan nan nan nan nan nan nan nan nan nan nan nan nan nan nan nan nan nan nan nan nan nan nan nan nan nan nan nan nan 285 287 287 294 303 304 310 315 314 315 314 314 315 314 312 312 309 310 309 308 307 306 305 303 306 308 312 312 313 315 316 316 316 315 315 317 319 320 321 321 nan nan nan 315 316 318 nan nan
nan nan nan nan nan nan nan nan nan nan nan nan nan nan nan nan nan nan nan nan nan nan nan 255 nan nan nan nan nan nan nan nan nan nan nan nan nan nan 293 300 302 307 311 309 310 310 311 311 311 311 311 311 311 312 312 310 308 306 304 302 301 310 309 309 311 312 313 316 317 317 316 316 316 318 320 321 322 322 320 318 317 316 317 319 nan nan
nan nan nan nan nan nan nan nan nan nan nan nan nan nan nan nan nan nan nan nan nan nan nan 272 271 nan nan nan nan nan nan nan nan nan nan nan nan nan nan 298 304 306 309 309 310 311 310 310 310 312 311 312 312 312 311 309 308 307 300 297 311 311 310 309 310 310 313 316 317 316 317 317 317 319 320 321 321 320 319 318 318 318 318 319 nan nan
nan nan nan nan nan nan nan nan nan nan nan nan nan nan nan nan nan nan nan nan nan nan nan nan nan nan nan nan nan nan nan nan nan nan nan nan nan nan nan nan 299 305 309 311 310 311 310 311 311 311 313 312 311 312 310 308 308 303 301 312 313 310 310 309 309 312 314 316 316 316 316 316 317 320 321 320 321 321 320 320 319 319 319 319 320 322
nan nan nan nan nan nan nan nan nan nan nan nan nan nan nan nan nan nan nan nan nan nan nan nan nan nan nan nan nan nan 275 286 nan nan nan nan nan nan nan nan 288 293 297 303 306 309 310 311 311 312 313 312 310 310 309 308 307 301 307 314 310 310 310 309 310 313 315 316 317 316 316 316 318 319 320 320 321 322 321 321 321 321 321 320 321 320
nan nan nan nan nan nan nan nan nan nan nan nan nan nan nan nan nan nan nan nan nan nan nan nan nan nan nan nan nan nan nan nan nan nan nan 278 278 281 277 278 282 282 286 293 298 304 308 311 312 312 311 310 310 310 308 308 304 304 313 309 308 307 308 310 311 312 314 317 317 316 317 317 318 318 319 320 321 321 321 322 322 321 320 319 nan nan
nan nan nan nan nan nan nan nan nan nan nan nan nan nan nan nan nan nan nan nan nan nan nan nan nan nan nan nan nan nan nan nan nan nan nan 287 290 289 289 288 284 281 283 289 294 300 305 306 306 307 309 309 310 309 305 304 302 306 306 308 305 306 305 308 311 312 314 316 316 317 318 317 318 319 319 320 320 321 322 322 322 319 318 318 317 nan
nan nan nan nan nan nan nan nan nan nan nan nan nan nan nan nan nan nan nan nan nan nan nan nan nan nan nan nan nan nan nan nan nan nan nan nan 297 297 297 295 288 285 285 286 292 298 301 304 304 305 307 309 307 302 302 304 303 301 304 303 304 304 306 308 311 312 313 316 317 318 318 318 319 319 318 319 320 321 322 322 321 318 316 nan nan nan
nan nan nan nan nan nan nan nan nan nan nan nan nan nan nan nan nan nan nan nan nan nan nan nan nan nan nan nan nan nan nan nan nan nan nan nan 304 304 303 298 297 294 293 292 296 298 301 305 306 305 309 306 303 303 304 302 299 300 301 303 303 305 307 309 309 311 314 317 318 318 319 319 319 318 318 318 319 321 323 323 320 318 316 317 nan 316
nan 233 nan nan nan nan nan nan 246 248 249 258 255 nan nan nan nan nan nan nan nan nan nan nan nan nan nan nan nan nan nan nan nan nan nan nan 307 306 301 297 296 297 296 295 297 300 300 303 305 308 309 306 304 303 301 298 298 299 301 303 305 306 308 309 311 314 317 319 319 318 319 319 317 317 317 318 320 322 323 321 318 316 316 318 318 317
nan nan 240 nan nan nan nan nan nan nan nan 261 261 nan nan nan nan nan nan nan nan nan nan nan nan nan nan nan nan nan nan nan nan nan nan nan 305 304 299 297 295 295 297 299 296 300 302 305 303 306 310 309 304 301 297 298 299 300 300 303 306 308 310 311 313 315 316 318 318 317 317 315 315 316 317 318 321 321 319 317 315 316 316 316 316 317
nan nan 237 nan nan nan nan nan nan nan nan nan 268 nan nan nan nan 257 nan nan 275 nan nan nan nan nan nan nan nan nan nan nan nan nan nan nan nan 302 301 302 301 301 303 302 304 305 307 304 308 310 308 306 302 300 299 301 303 303 304 305 307 309 311 311 312 313 314 315 315 315 314 314 314 315 318 319 320 317 314 312 314 316 316 317 317 318
nan nan nan nan 244 243 nan 251 249 nan nan nan nan nan nan nan nan nan nan nan nan nan nan nan nan nan nan nan nan nan nan nan nan nan nan nan nan nan 296 298 298 298 302 301 304 302 303 304 305 306 306 306 304 304 303 305 305 306 306 308 308 308 309 308 307 308 310 313 315 316 314 314 313 315 317 318 315 312 311 313 316 318 318 319 319 nan
nan nan nan nan nan nan nan nan nan nan 254 nan nan nan 262 nan nan nan nan nan nan nan nan nan nan nan nan nan nan nan nan nan nan nan nan nan 292 293 297 298 298 300 300 303 300 302 302 305 307 308 308 305 303 305 306 306 306 307 306 305 306 307 305 302 302 306 311 313 315 315 313 311 313 314 314 313 312 312 312 313 316 317 314 317 318 318
nan nan nan nan nan nan nan nan nan nan 246 nan 257 nan nan nan nan nan 255 259 nan nan nan nan nan nan nan nan nan nan nan nan nan nan nan nan 293 292 295 296 299 299 298 295 296 300 301 305 307 308 306 304 306 307 306 304 303 303 303 304 307 307 304 301 302 306 311 313 315 315 314 312 308 308 310 313 313 312 314 314 317 318 317 317 318 320
239 nan nan nan nan nan nan nan nan nan 254 248 nan nan nan nan 252 257 261 260 nan nan nan nan nan nan nan nan nan nan nan nan nan nan nan nan 286 290 295 297 297 298 296 296 299 301 303 304 306 308 306 305 307 305 303 303 302 301 301 300 302 301 303 304 307 309 310 312 315 313 312 310 312 314 312 313 313 313 314 314 315 315 315 318 320 319
248 nan nan nan nan nan nan nan 241 238 253 252 nan 254 nan nan 254 255 258 269 264 260 265 nan nan nan nan 271 271 272 270 nan nan 287 289 284 282 291 295 296 297 297 297 300 300 301 304 301 303 303 305 303 301 301 302 302 301 302 301 300 296 299 304 307 309 310 311 311 310 309 308 309 310 306 308 309 311 312 314 316 316 315 316 318 318 320
249 240 235 238 235 nan 235 244 250 244 246 nan 250 250 251 256 258 257 256 256 261 nan nan nan 266 nan 276 275 274 275 278 nan 282 287 287 289 295 298 296 297 295 296 298 299 299 297 299 297 300 301 300 296 286 285 284 288 294 302 305 303 307 310 311 309 310 309 307 305 304 306 306 303 305 310 312 309 312 313 312 315 316 317 317 319 320 321
243 238 240 236 245 249 249 243 249 251 248 251 nan 254 248 nan 253 nan 250 253 256 257 260 262 262 264 268 274 276 278 281 282 287 291 294 296 295 294 293 292 291 292 294 293 293 291 295 294 299 296 289 279 281 289 291 293 297 299 299 301 299 296 297 296 298 301 303 305 306 308 307 310 311 312 313 310 308 309 310 311 312 312 313 316 318 319
245 nan nan nan 249 nan 249 252 247 248 nan 249 246 nan nan nan nan 251 250 251 252 254 257 260 262 264 268 271 277 278 282 289 292 292 295 294 294 290 288 285 287 288 287 282 280 285 289 293 294 294 287 285 285 286 287 288 289 291 297 299 299 297 298 301 303 303 303 305 306 308 309 310 311 310 308 307 306 306 310 310 306 308 311 314 315 317
nan nan nan nan 245 251 247 247 249 nan 248 248 250 nan nan nan nan 250 253 255 256 259 263 265 265 268 271 277 280 282 281 285 289 291 290 285 284 285 280 280 282 284 284 282 280 279 281 281 284 288 287 291 291 292 292 296 300 300 298 294 294 297 302 303 304 304 305 307 307 305 306 307 302 302 nan nan 302 305 305 302 306 nan 307 307 307 312
nan nan 240 nan nan nan 254 253 248 249 256 259 nan nan nan nan nan 252 253 255 256 256 256 260 266 268 272 274 274 275 279 280 283 279 278 279 277 271 275 277 280 281 281 278 275 274 275 278 281 282 286 285 283 282 282 283 284 284 284 289 293 295 300 301 302 303 304 303 303 304 303 301 304 304 301 302 306 299 293 297 301 300 300 297 nan nan
244 248 249 nan nan 247 247 246 244 252 256 260 nan nan nan nan nan 253 nan nan 255 255 257 259 263 266 266 266 275 278 279 282 283 284 288 283 280 276 275 275 278 279 277 274 274 275 277 278 280 282 283 283 283 283 283 283 284 284 nan 286 291 294 298 300 300 302 304 304 305 304 306 304 303 303 302 301 298 298 296 nan nan nan 297 nan nan nan
nan 240 244 245 244 nan 252 nan nan nan 249 252 nan nan nan nan 250 nan nan nan nan nan 255 256 259 262 270 268 271 275 277 276 279 285 288 282 279 272 269 276 278 278 276 274 275 279 280 280 280 281 281 281 282 283 283 283 284 284 285 287 292 294 296 299 302 302 301 298 299 298 302 304 303 299 300 301 300 298 300 300 nan nan nan nan nan nan